www.pogodaiklimat.ru
ПОГОДА в Эмигрант Гэп
Время
и дата
06:52 19.07
07:52 19.07
08:52 19.07
09:52 19.07
10:52 19.07
11:52 19.07
12:52 19.07
13:52 19.07
14:52 19.07
15:52 19.07
16:52 19.07
17:52 19.07
18:52 19.07
19:52 19.07
20:52 19.07
21:52 19.07
22:52 19.07
23:52 19.07
00:52 20.07
01:52 20.07
02:52 20.07
04:52 20.07
05:52 20.07
06:52 20.07
07:52 20.07
08:52 20.07
09:52 20.07
10:52 20.07
11:52 20.07
12:52 20.07
13:52 20.07
14:52 20.07
15:52 20.07
16:52 20.07
17:52 20.07
18:52 20.07
19:52 20.07
20:52 20.07
21:52 20.07
22:52 20.07
23:52 20.07
00:52 21.07
01:52 21.07
02:52 21.07
03:52 21.07
04:52 21.07
05:52 21.07
06:52 21.07
Ветер
(напр.,м/с)
Видим. Явления Облачность Т
(С)
Тd
(С)
f
(%)
Тe
(С)
Тes
(С)
Комфортность P
(гПа)
Po
(гПа)
Тmin
(С)
Tmax
(С)
R
(мм)
R24
(мм)
S
(см)
штиль 0 16 км ясно +23.9 -0.6 20 +23 +24 комфорт 1014.0 844.3
штиль 0 16 км ясно +23.3 +1.1 23 +22 +27 комфорт 1014.6 844.3
нст 2 16 км ясно +26.7 +2.8 21 +25 +33 комфорт 1013.6 844.0
нст 2 16 км ясно +27.8 -0.6 16 +25 +37 комфорт 1013.7 844.3 +20.6 +27.8
нст 2 16 км ясно +28.9 +3.9 20 +27 +43 жарко 1013.5 844.3
З 4 16 км ясно +29.4 +5.0 21 +28 +41 жарко 1013.2 844.3
нст 2 16 км ясно +28.9 +5.6 23 +28 +48 жарко 1013.7 844.3
нст 3 16 км ясно +29.4 +6.1 23 +28 +44 жарко 1013.4 844.6
нст 3 16 км ясно +28.9 +6.7 25 +28 +42 жарко 1012.9 844.0
ЮЗ 3 16 км ясно +28.9 +6.7 25 +28 +38 жарко 1012.8 843.7 +27.8 +30.0
З 2 16 км ясно +29.4 +7.8 26 +29 +36 жарко 1012.1 843.5
З 3 16 км ясно +28.9 +7.8 27 +28 +32 жарко 1012.4 843.5
З 2 16 км ясно +26.7 +8.9 33 +27 +28 жарко 1012.5 843.5
штиль 0 16 км ясно +24.4 +7.8 35 +25 +25 комфорт 1013.6 843.5
С 2 16 км ясно +24.4 +7.8 35 +25 +25 комфорт 1013.1 844.0
штиль 0 16 км ясно +23.3 +7.8 37 +24 +24 комфорт 1012.9 843.7 +22.8 +30.0
штиль 0 16 км ясно +22.8 +8.3 39 +24 +24 комфорт 1012.2 843.5
нст 3 16 км ясно +23.9 +5.0 29 +24 +24 комфорт 1011.8 843.5
нст 3 16 км ясно +25.0 +1.1 21 +24 +24 комфорт 1010.8 842.9
СВ 3 16 км ясно +25.0 +1.7 22 +24 +24 комфорт 1010.6 842.6
СВ 3 16 км ясно +25.0 +1.1 21 +24 +24 комфорт 1009.9 842.1
штиль 0 16 км ясно +24.4 +1.1 22 +23 +23 комфорт 1010.1 842.1
штиль 0 16 км ясно +23.9 +2.8 25 +23 +23 комфорт 1010.7 842.3
штиль 0 16 км ясно +26.1 +3.3 23 +25 +26 комфорт 1011.0 842.6
штиль 0 16 км ясно +27.8 +3.9 22 +26 +31 жарко 1011.6 842.9
штиль 0 16 км ясно +29.4 +5.6 22 +28 +38 жарко 1011.5 843.2
нст 2 16 км ясно +30.0 +7.8 25 +29 +41 жарко 1011.7 843.2 +23.3 +30.0
16 км ясно +30.0 +8.3 26 +29 +51 опасность
солнечного
удара
1011.7 843.2
нст 3 16 км ясно +30.6 +10.0 28 +30 +46 жарко 1011.0 843.2
Ю 3 16 км ясно +31.7 +10.0 26 +31 +48 жарко 1010.5 842.9
З 4 16 км ясно +31.1 +10.6 28 +31 +44 жарко 1010.2 842.9
ЮЗ 4 16 км ясно +30.6 +9.4 27 +30 +41 жарко 1010.6 842.9
нст 2 16 км ясно +30.0 +9.4 28 +30 +42 жарко 1010.4 842.3 +29.4 +31.7
нст 2 16 км ясно +30.0 +9.4 28 +30 +37 жарко 1010.2 842.3
нст 2 16 км ясно +28.9 +8.3 27 +28 +32 жарко 1010.3 842.1
З 2 16 км ясно +27.2 +8.9 32 +27 +29 жарко 1010.5 842.3
штиль 0 16 км ясно +22.8 +8.9 41 +24 +24 комфорт 1011.4 842.6
штиль 0 16 км ясно +22.2 +8.3 41 +23 +23 комфорт 1011.3 842.9
штиль 0 16 км ясно +24.4 +8.9 37 +25 +25 комфорт 1010.4 842.3 +22.2 +30.6
штиль 0 16 км ясно +25.0 +8.3 35 +25 +25 комфорт 1009.6 842.1
штиль 0 16 км ясно +24.4 +7.8 35 +25 +25 комфорт 1009.5 842.1
штиль 0 16 км ясно +22.8 +7.8 38 +24 +24 комфорт 1009.8 842.1
штиль 0 16 км ясно +22.2 +7.8 40 +23 +23 комфорт 1009.9 841.8
штиль 0 16 км ясно +21.7 +7.8 41 +23 +23 комфорт 1010.0 841.8
штиль 0 16 км ясно +22.8 +7.2 37 +24 +24 комфорт 1009.6 841.5 +21.7 +26.1
В 2 16 км ясно +23.3 +7.8 37 +24 +24 комфорт 1009.6 841.5
штиль 0 16 км ясно +23.3 +8.3 38 +24 +24 комфорт 1009.8 841.5
штиль 0 16 км ясно +25.0 +8.9 36 +26 +27 жарко 1010.2 841.8
Местоположение метеостанции Blue Canyon Nyack Airport: широта 39.2761 долгота -120.7081 высота над уровнем моря 1610 м.
В архиве по умолчанию представлена погода в Эмигрант Гэп за последние 1-2 суток. Обновление информации о фактической погоде в базе происходит ежечасно! Архивные данные за месяц целиком и за предыдущие месяцы Вы можете получить, выбрав интересующий диапазон дат из раскрывающегося списка и нажав кнопку "Ввод!".
Внимание! Архив погоды МЕТАР в базе сайта по станциям, не включенным в климатический монитор, хранится не более 60 дней. Нет смысла пытаться выбрать более раннюю дату.
*Определитесь, кто Вы:
Внимание! Время в таблицах - местное (без учета летнего времени). Для получения всемирного времени необходимо вычесть поправку, которая равна -8 ч.
Смотрите также архив погоды в соседних городах и на ближайших метеорологических станциях:
Партнеры нашего сайта:      
Пояснения к столбцам:
  • Ветер - указаны скорость ветра в м/с - средняя за 10 мин, порывы в срок и между сроками (в фигурных скобках) и направление, откуда дует ветер: С - северный,
  • СВ - северо-восточный, В - восточный, ЮВ - юго-восточный, Ю - южный, ЮЗ - юго-западный, З - западный, СЗ - северо-западный.
  • Видимость - горизонтальная дальность видимости в метрах или километрах. При видимости от 1 до 10 км при отсутствии осадков обычно наблюдается дымка, при ухудшении видимости до 1 км и менее - туман. В сухую погоду видимость может ухудшаться дымом, пылью или мглою.
  • Явления - указаны атмосферные явления, наблюдавшиеся в срок или в последний час перед сроком; фигурными скобками обозначены явления, наблюдавшиеся между сроками (за 1-3 часа до срока); квадратными скобками обозначены град или гололедные отложения с указанием их диаметра в мм.
  • Облачность - указаны через наклонную черту общая и нижняя облачность в баллах и высота нижней границы облаков в метрах; квадратными скобками обозначены формы облаков: Ci - перистые, Cs - перисто-слоистые, Cc - перисто-кучевые, Ac - высококучевые, As - высокослоистые, Sc - слоисто-кучевые, Ns - слоисто-дождевые, Cu - кучевые, Cb - кучево-дождевые. Подробнее классификацию облаков см. в Атласе облаков (PDF).
  • T - Температура воздуха - температура, измеренная на высоте 2 м над землей.
  • Td - Температура точки росы - температура, при понижении до которой содержащийся в воздухе водяной пар достигнет насыщения.
  • f - Относительная влажность воздуха - влажноcть воздуха, измеренная на высоте 2 м над землей.
  • Te - Эффективная температура - температура, которую ощущает одетый по сезону человек в тени. Характеристика душности погоды. При расчете учитывается влияние влажности воздуха и скорости ветра на теплоощущения человека.
  • Tes - Эффективная температура на солнце - температура, которую ощущает человек, с поправкой на солнечный нагрев. Характеристика знойности погоды. Зависит от высоты солнца над горизонтом, облачности и скорости ветра. Ночью, в пасмурную погоду, а также при ветре 12 м/с и более поправка равна нулю.
  • P - Атмосферное давление - приведенное к уровню моря атмосферное давление.
  • Po - Атмосферное давление - измеренное на уровне метеостанции атмосферное давление.
  • Tmin - Минимальная температура - минимум температуры воздуха на высоте 2 м над землей.
  • Tmax - Максимальная температура - максимум температуры воздуха на высоте 2 м над землей.
  • R - Количество осадков - Количество выпавших осадков за период времени, мм. При наведении курсора мыши на число - период времени, за который выпало указанное количество осадков.
  • R24 - Количество осадков - Количество выпавших осадков за 24 часа, мм.
  • S - Снежный покров - Высота снежного покрова, см. При наведении курсора мыши на число - состояние снежного покрова и степень покрытия местности в баллах.